[[{"header":{"parameterUnit":"m.s-1","parameterCategory":1,"la1":30.2991,"la2":30.254,"lo1":-89.0895,"lo2":-89.0444,"dy":0.0017,"dx":0.0017,"nx":28,"ny":28,"refTime":"2023-07-26T03:00:00:Z","depth":0,"parameterNumber":2,"parameterNumberName":"U-component_of_WINDS"},"data":[0,0,0,0,0,0,0,0,0,0,0,0,0,0,0,0,0,0,0,0,0,0,0,0,0,0,0,0,0,0,0,0,0,0,0,0,0,0,0,0,0,0,0,0,0,0,0,0,0,0,0,0,0,0,0,0,0,0,1.6878,1.6878,0,1.6861,1.6861,1.6861,1.6813,1.6812,1.6811,1.681,1.6791,1.6791,1.6792,0,0,0,0,0,0,0,0,0,0,0,0,0,1.687,1.687,1.6878,1.6878,1.6878,1.6861,1.6861,1.686,1.6813,1.6812,1.6811,1.681,1.6791,1.6791,1.6792,0,0,0,0,0,0,0,0,0,0,0,0,0,1.6865,1.687,1.6878,1.6852,1.685,1.6861,1.6861,1.686,1.6814,1.6812,1.6811,1.6809,1.6791,1.6791,1.6792,1.6826,0,0,1.6794,1.6794,0,0,0,0,0,0,0,0,1.6865,1.6865,1.6856,1.6854,1.6851,1.6838,1.6851,1.6849,1.6814,1.6827,1.681,1.6808,1.6808,1.6807,1.6807,1.6825,1.6825,1.6794,1.6794,1.6795,1.6795,0,0,0,0,0,0,0,1.6866,1.6866,1.6871,1.6856,1.6853,1.6841,1.6839,1.685,1.6826,1.6826,1.6823,1.6821,1.6806,1.6806,1.6806,1.6824,1.6794,1.6794,1.6795,1.6795,1.6872,1.6873,0,0,0,0,0,0,1.687,1.6866,1.6872,1.6871,1.6855,1.6843,1.684,1.6844,1.6826,1.6822,1.6823,1.6819,1.6806,1.6805,1.6805,1.6845,1.6795,1.6795,1.6795,1.687,1.6872,1.6874,0,0,0,0,0,0,1.687,1.6871,1.6872,1.6868,1.6867,1.6844,1.6849,1.6844,1.6844,1.6823,1.6819,1.6827,1.6805,1.6804,1.6822,1.6843,1.6795,1.6796,1.6868,1.6871,1.6873,1.6924,0,0,0,0,0,0,1.687,1.6871,1.6884,1.6868,1.6867,1.689,1.685,1.6845,1.6846,1.6841,1.6827,1.6823,1.6803,1.6821,1.6822,1.6843,1.6797,1.6866,1.6869,1.6872,1.692,1.6928,1.6934,0,0,0,0,0,1.687,1.6898,1.6885,1.6885,1.6883,1.6891,1.689,1.6868,1.6848,1.686,1.6847,1.6823,1.6841,1.6823,1.6824,1.6846,1.6865,1.6868,1.6872,1.6917,1.6926,1.6934,0,0,0,0,0,0,1.6915,1.6895,1.688,1.6904,1.69,1.6883,1.6898,1.6878,1.6879,1.6874,1.6846,1.6844,1.6865,1.6857,1.6838,1.6879,1.6849,1.6853,1.6883,1.6892,1.6899,1.6899,1.6797,0,0,0,0,0,1.6928,1.6937,1.6919,1.6942,1.6941,1.692,1.6923,1.6906,1.69,1.6898,1.6885,1.688,1.6885,1.6888,1.6891,1.692,1.6916,1.6935,1.6942,1.6948,1.6951,1.6967,1.6975,1.6886,1.6886,1.6886,0,0,1.6955,1.6945,1.6952,1.6951,1.6945,1.6955,1.6918,1.6929,1.6936,1.6899,1.6915,1.6907,1.6899,1.6922,1.6932,1.6916,1.6976,1.6953,1.6958,1.6958,1.6971,1.698,1.6987,1.6889,1.6888,1.6888,0,0,1.7008,1.7002,1.702,1.7016,1.7009,1.6996,1.7001,1.6987,1.698,1.6996,1.6969,1.6977,1.6985,1.6981,1.6979,1.7034,1.7012,1.7036,1.7072,1.7088,1.7095,1.7101,1.712,1.7127,1.704,1.704,1.704,0,1.7041,1.7054,1.7032,1.7046,1.7046,1.7015,1.7034,1.7031,1.7025,1.7026,1.7009,1.702,1.7013,1.7035,1.7049,1.7049,1.7054,1.7037,1.7096,1.7101,1.7107,1.7125,1.7132,1.7043,1.7043,1.7042,1.7042,0,1.7096,1.7106,1.7122,1.7118,1.7121,1.7137,1.7118,1.7124,1.7108,1.7097,1.7114,1.7104,1.7105,1.711,1.7094,1.7131,1.7121,1.7101,1.707,1.7118,1.7135,1.7142,1.7047,1.7046,1.7045,1.7045,0,0,1.7174,1.716,1.7166,1.7165,1.7156,1.7163,1.7179,1.7181,1.7186,1.7184,1.7196,1.7205,1.7186,1.7185,1.7169,1.7183,1.7227,1.7161,1.716,1.7173,1.7267,1.7281,1.729,1.7214,1.7215,1.7216,1.7267,0,1.7224,1.7249,1.7231,1.726,1.7269,1.7241,1.7255,1.7251,1.7241,1.7248,1.7237,1.7244,1.7219,1.7218,1.7231,1.7219,1.7245,1.7215,1.7224,1.7224,1.7225,1.7298,1.7313,1.7362,1.7274,1.7275,1.7275,0,1.7284,1.7286,1.7316,1.7307,1.731,1.7322,1.7323,1.733,1.7326,1.7318,1.7318,1.7299,1.7314,1.7286,1.7306,1.7286,1.7289,1.7284,1.7285,1.7283,1.7251,1.7298,1.7377,1.7384,1.7285,1.7285,1.7284,0,1.7337,1.7347,1.7367,1.7366,1.7356,1.7366,1.7362,1.7356,1.7359,1.7361,1.7362,1.7365,1.7367,1.7369,1.7352,1.7333,1.7374,1.7344,1.7367,1.7368,1.7375,1.7375,1.7455,1.738,1.738,1.738,1.738,0,1.7393,1.7412,1.739,1.7402,1.7423,1.7403,1.7425,1.7418,1.7414,1.7424,1.74,1.741,1.7387,1.7395,1.7382,1.74,1.7401,1.7395,1.7391,1.7396,1.7397,1.7396,1.7391,1.7382,1.7381,1.7381,1.7381,0,1.7455,1.7441,1.746,1.745,1.7448,1.7464,1.7456,1.7466,1.7457,1.747,1.7472,1.7456,1.7464,1.7448,1.7453,1.7444,1.747,1.7462,1.7472,1.7469,1.7493,1.749,1.7574,1.7584,1.7504,1.7505,1.7505,0,1.749,1.7505,1.7497,1.7503,1.7501,1.751,1.7513,1.7495,1.75,1.7497,1.7508,1.7515,1.7519,1.7533,1.7522,1.7526,1.7516,1.7546,1.7517,1.7522,1.7516,1.7514,1.7516,1.7551,1.7552,1.7553,1.7553,0,1.7555,1.7548,1.7554,1.7559,1.7565,1.7567,1.7568,1.7574,1.7555,1.7561,1.757,1.7573,1.758,1.7586,1.7589,1.7585,1.7566,1.7563,1.7569,1.7573,1.7578,1.7575,1.7486,1.7561,1.756,1.7559,1.7559,1.7559,1.7604,1.7616,1.7613,1.7621,1.762,1.7622,1.7632,1.7625,1.7632,1.7636,1.7625,1.7637,1.7634,1.7635,1.7634,1.7642,1.7629,1.7637,1.7638,1.764,1.7644,1.7579,1.7643,1.7642,1.7642,1.7642,1.7642,0,1.7666,1.7664,1.7672,1.7675,1.7682,1.7666,1.7666,1.7673,1.7683,1.7683,1.7688,1.7698,1.7705,1.7696,1.7702,1.771,1.7702,1.7712,1.771,1.771,1.7656,1.765,1.7719,1.7719,1.7719,1.7719,1.7719,1.7719,1.7699,1.7719,1.7712,1.7732,1.7729,1.774,1.7742,1.7744,1.7744,1.7757,1.7763,1.7758,1.7754,1.7759,1.7765,1.7762,1.7764,1.7778,1.7772,1.7721,1.7713,1.7706,1.77,1.7779,1.7779,1.7824,1.7825,1.7825]},{"header":{"parameterUnit":"m.s-1","parameterCategory":1,"la1":30.2991,"la2":30.254,"lo1":-89.0895,"lo2":-89.0444,"dy":0.0017,"dx":0.0017,"nx":28,"ny":28,"refTime":"2023-07-26T03:00:00:Z","depth":0,"parameterNumber":3,"parameterNumberName":"V-component_of_WINDS"},"data":[0,0,0,0,0,0,0,0,0,0,0,0,0,0,0,0,0,0,0,0,0,0,0,0,0,0,0,0,0,0,0,0,0,0,0,0,0,0,0,0,0,0,0,0,0,0,0,0,0,0,0,0,0,0,0,0,0,0,-3.176,-3.1761,0,-3.1834,-3.1835,-3.1836,-3.1796,-3.1794,-3.1792,-3.179,-3.1863,-3.1867,-3.187,0,0,0,0,0,0,0,0,0,0,0,0,0,-3.1582,-3.1586,-3.176,-3.1761,-3.1762,-3.1834,-3.1835,-3.1836,-3.1796,-3.1794,-3.1791,-3.1789,-3.1862,-3.1866,-3.1871,0,0,0,0,0,0,0,0,0,0,0,0,0,-3.1658,-3.1587,-3.176,-3.1751,-3.1751,-3.1834,-3.1835,-3.1836,-3.1797,-3.1794,-3.1791,-3.1788,-3.186,-3.1866,-3.1871,-3.1966,0,0,-3.1889,-3.1891,0,0,0,0,0,0,0,0,-3.1654,-3.1665,-3.1751,-3.1752,-3.1752,-3.1803,-3.1799,-3.188,-3.1798,-3.1779,-3.179,-3.1787,-3.1845,-3.1852,-3.1872,-3.197,-3.1973,-3.1889,-3.1893,-3.1895,-3.1897,0,0,0,0,0,0,0,-3.1649,-3.1661,-3.1789,-3.1753,-3.1753,-3.1742,-3.175,-3.1814,-3.1828,-3.1781,-3.1778,-3.1787,-3.1845,-3.1867,-3.1874,-3.1974,-3.1889,-3.1894,-3.1898,-3.19,-3.2153,-3.2156,0,0,0,0,0,0,-3.1644,-3.1657,-3.1787,-3.1791,-3.1695,-3.1748,-3.1756,-3.1789,-3.1827,-3.183,-3.179,-3.1785,-3.1858,-3.1867,-3.1876,-3.1989,-3.1895,-3.19,-3.1904,-3.2149,-3.2153,-3.2157,0,0,0,0,0,0,-3.1641,-3.1656,-3.1784,-3.1724,-3.1739,-3.1754,-3.1792,-3.1792,-3.1814,-3.1834,-3.1836,-3.181,-3.1856,-3.1868,-3.1944,-3.1991,-3.1903,-3.1908,-3.2145,-3.2151,-3.2155,-3.2217,0,0,0,0,0,0,-3.1636,-3.1655,-3.1692,-3.1725,-3.1742,-3.1852,-3.1795,-3.1796,-3.1825,-3.1819,-3.1854,-3.1856,-3.1855,-3.1936,-3.195,-3.1998,-3.1912,-3.2141,-3.2148,-3.2154,-3.2211,-3.2224,-3.2235,0,0,0,0,0,-3.163,-3.1706,-3.1694,-3.171,-3.1789,-3.1855,-3.1865,-3.1862,-3.1829,-3.1865,-3.1878,-3.1855,-3.1984,-3.1944,-3.1959,-3.201,-3.2138,-3.2146,-3.2153,-3.2206,-3.2221,-3.2234,0,0,0,0,0,0,-3.1677,-3.171,-3.1697,-3.1786,-3.1818,-3.1848,-3.1894,-3.1879,-3.192,-3.1913,-3.1907,-3.1915,-3.1995,-3.201,-3.1965,-3.2103,-3.2056,-3.2067,-3.2091,-3.2106,-3.2117,-3.2111,-3.1917,0,0,0,0,0,-3.1698,-3.1749,-3.1775,-3.1851,-3.1868,-3.1879,-3.1907,-3.1903,-3.1935,-3.1948,-3.1966,-3.1997,-3.2045,-3.2076,-3.2121,-3.2213,-3.222,-3.2255,-3.2267,-3.2277,-3.2286,-3.2336,-3.2352,-3.2181,-3.2181,-3.2181,0,0,-3.1741,-3.1766,-3.1798,-3.1862,-3.1886,-3.1938,-3.189,-3.1948,-3.1986,-3.1956,-3.2029,-3.2044,-3.2079,-3.2164,-3.2202,-3.2178,-3.2335,-3.2286,-3.2294,-3.2298,-3.2345,-3.2361,-3.2375,-3.2186,-3.2185,-3.2185,0,0,-3.1848,-3.1872,-3.1938,-3.1963,-3.2001,-3.2007,-3.2023,-3.2056,-3.2065,-3.2138,-3.2117,-3.2162,-3.2245,-3.227,-3.2294,-3.2411,-3.2391,-3.2426,-3.2487,-3.2535,-3.2549,-3.2561,-3.2602,-3.2617,-3.2435,-3.2435,-3.2435,0,-3.1897,-3.1976,-3.1974,-3.2034,-3.2062,-3.2038,-3.2105,-3.2129,-3.2179,-3.2199,-3.2172,-3.2275,-3.2296,-3.2387,-3.2416,-3.2436,-3.2453,-3.2421,-3.2547,-3.2559,-3.257,-3.261,-3.2625,-3.2439,-3.2438,-3.2438,-3.2438,0,-3.2035,-3.209,-3.2139,-3.2189,-3.2223,-3.2286,-3.2292,-3.2326,-3.2319,-3.2328,-3.2404,-3.2429,-3.2479,-3.25,-3.2493,-3.259,-3.2574,-3.2548,-3.25,-3.259,-3.2627,-3.2642,-3.2444,-3.2443,-3.2442,-3.2441,0,0,-3.2172,-3.222,-3.2238,-3.2261,-3.2301,-3.2343,-3.2405,-3.2455,-3.2484,-3.2519,-3.2571,-3.2641,-3.2617,-3.2644,-3.264,-3.2683,-3.2774,-3.2651,-3.2652,-3.2673,-3.2881,-3.2901,-3.2918,-3.2761,-3.2764,-3.2767,-3.2878,0,-3.228,-3.2389,-3.2389,-3.249,-3.2541,-3.2519,-3.2573,-3.2603,-3.2613,-3.2657,-3.2668,-3.2719,-3.2683,-3.27,-3.2741,-3.2754,-3.2815,-3.2746,-3.2808,-3.281,-3.28,-3.2938,-3.2958,-3.3062,-3.2893,-3.2895,-3.2897,0,-3.2421,-3.2463,-3.2569,-3.2602,-3.2623,-3.2671,-3.2717,-3.276,-3.2793,-3.2798,-3.2829,-3.2818,-3.288,-3.2831,-3.2916,-3.2869,-3.2895,-3.2905,-3.2909,-3.2914,-3.2859,-3.2946,-3.3095,-3.3111,-3.292,-3.2918,-3.2916,0,-3.2511,-3.2592,-3.2666,-3.2686,-3.2727,-3.2761,-3.278,-3.281,-3.284,-3.288,-3.2899,-3.2945,-3.297,-3.3006,-3.3008,-3.2972,-3.3094,-3.3045,-3.3098,-3.3099,-3.3124,-3.3123,-3.328,-3.3142,-3.3142,-3.3141,-3.3141,0,-3.2632,-3.2697,-3.2707,-3.2752,-3.2825,-3.2824,-3.2896,-3.2911,-3.2938,-3.2986,-3.297,-3.3014,-3.3015,-3.306,-3.3062,-3.3132,-3.3144,-3.3148,-3.3148,-3.315,-3.3149,-3.3166,-3.3158,-3.3146,-3.3145,-3.3144,-3.3143,0,-3.2743,-3.2752,-3.2832,-3.2864,-3.2874,-3.2926,-3.2953,-3.2996,-3.3005,-3.3065,-3.3079,-3.3094,-3.3146,-3.3152,-3.3213,-3.3214,-3.3299,-3.3291,-3.3288,-3.3286,-3.334,-3.3334,-3.3512,-3.3535,-3.3383,-3.3385,-3.3386,0,-3.2819,-3.2869,-3.2907,-3.2939,-3.2959,-3.3009,-3.304,-3.3041,-3.3074,-3.3116,-3.3154,-3.3205,-3.3246,-3.3331,-3.3347,-3.3393,-3.3386,-3.3445,-3.3393,-3.3393,-3.3386,-3.3383,-3.3388,-3.3455,-3.3457,-3.3458,-3.3459,0,-3.2954,-3.2956,-3.3002,-3.3049,-3.3087,-3.3124,-3.3159,-3.3185,-3.3191,-3.3228,-3.3282,-3.3314,-3.3377,-3.3428,-3.3474,-3.3492,-3.3477,-3.3476,-3.3491,-3.3492,-3.3488,-3.3491,-3.3315,-3.3471,-3.347,-3.3469,-3.3469,-3.3468,-3.3049,-3.3093,-3.3127,-3.3178,-3.3205,-3.3238,-3.328,-3.3295,-3.3341,-3.3393,-3.3391,-3.3451,-3.3483,-3.3543,-3.3565,-3.3611,-3.3591,-3.3612,-3.3618,-3.3623,-3.3628,-3.3482,-3.3619,-3.3619,-3.3618,-3.3618,-3.3618,0,-3.3183,-3.3204,-3.3251,-3.3301,-3.3342,-3.3325,-3.3363,-3.3397,-3.3451,-3.3482,-3.3524,-3.3586,-3.3636,-3.3655,-3.3704,-3.3737,-3.3731,-3.3749,-3.3746,-3.3751,-3.3643,-3.3625,-3.3753,-3.3753,-3.3753,-3.3753,-3.3753,-3.3753,-3.3257,-3.3329,-3.3336,-3.3422,-3.3442,-3.3501,-3.3525,-3.3555,-3.358,-3.3651,-3.3693,-3.3706,-3.3733,-3.3783,-3.3827,-3.3832,-3.385,-3.3872,-3.3873,-3.3772,-3.3758,-3.3745,-3.3728,-3.3876,-3.3876,-3.3976,-3.3977,-3.3978]}]]